Location: Unspecified
(0.0000°N, 0.0000°E)
Time: 18:03:50
(UTC+00:00)

Vanguard 1 - Pass Details

Date: 10 October 2020
Orbit: 650 x 3833 km, 34.3° (Epoch: 26 October)

Event Time Altitude Azimuth Distance (km) Brightness Sun altitude
Rises 14:38:12 0° 239° (WSW) 7,853 15.3 46.7°
Reaches altitude 10° 14:43:30 10° 240° (WSW) 6,922 15.3 45.4°
Maximum altitude 15:06:58 69° 320° (NW) 3,480 13.7 39.6°
Drops below altitude 10° 15:22:46 10° 43° (NE) 4,919 13.3 35.7°
Sets 15:25:51 0° 46° (NE) 5,581 13.5 34.9°
